AC5JC-1 Weather Reports


Display with metric or nautical units.
time (UTC)temp
F
wind
direction
speed
MPH
gust
MPH
rain 1hr
in
rain 24hr
in
rain mn
in
humidity
%
barometer
mb
20260510040605 75 118 0.0 1.0 0.00 0.00 0.00 73 1009.0
20260510040045 75 121 1.0 1.0 0.00 0.00 0.00 72 1009.2
20260510035534 75 93 1.0 2.0 0.00 0.00 0.00 71 1009.2
20260510035034 75 129 1.0 2.0 0.00 0.00 0.00 72 1009.3
20260510034534 75 116 1.0 1.0 0.00 0.00 0.00 73 1009.3
20260510034030 74 125 0.0 1.0 0.00 0.00 0.00 74 1009.2
20260510033613 74 107 0.0 1.0 0.00 0.00 0.00 74 1009.2
20260510033053 74 115 1.0 1.0 0.00 0.00 0.00 74 1009.3
20260510032533 75 103 0.0 1.0 0.00 0.00 0.00 74 1009.3
20260510032054 75 110 0.0 1.0 0.00 0.00 0.00 74 1009.4
20260510031021 74 93 0.0 1.0 0.00 0.00 0.00 75 1009.4
20260510030605 74 109 0.0 1.0 0.00 0.00 0.00 76 1009.3
20260510030045 75 102 0.0 1.0 0.00 0.00 0.00 76 1009.3
20260510025534 75 107 0.0 3.0 0.00 0.00 0.00 76 1009.5
20260510025034 75 91 0.0 1.0 0.00 0.00 0.00 76 1009.4
20260510024535 75 69 0.0 1.0 0.00 0.00 0.00 76 1009.4
20260510024050 75 78 0.0 1.0 0.00 0.00 0.00 74 1009.4
20260510023613 75 75 0.0 1.0 0.00 0.00 0.00 74 1009.3
20260510023053 75 79 1.0 1.0 0.00 0.00 0.00 72 1009.4
20260510022554 76 0.0 0.0 0.00 0.00 0.00 70 1009.2
20260510022034 76 77 1.0 3.0 0.00 0.00 0.00 69 1009.0
20260510021534 76 75 0.0 1.0 0.00 0.00 0.00 68 1009.0
20260510021034 76 73 1.0 2.0 0.00 0.00 0.00 68 1009.0
20260510020554 75 65 1.0 1.0 0.00 0.00 0.00 70 1009.0
20260510020035 75 0.0 0.0 0.00 0.00 0.00 71 1008.9
20260510015545 76 0.0 0.0 0.00 0.00 0.00 70 1008.9
20260510015109 76 73 0.0 1.0 0.00 0.00 0.00 69 1008.9
20260510014550 76 74 0.0 1.0 0.00 0.00 0.00 71 1008.8
20260510014054 76 0.0 0.0 0.00 0.00 0.00 73 1008.7
20260510013526 76 0.0 0.0 0.00 0.00 0.00 72 1008.5
20260510013109 77 0.0 0.0 0.00 0.00 0.00 72 1008.5
20260510012549 78 0.0 0.0 0.00 0.00 0.00 70 1008.4
20260510012054 79 75 0.0 1.0 0.00 0.00 0.00 69 1008.5
20260510011535 79 76 0.0 1.0 0.00 0.00 0.00 67 1008.4
20260510011034 79 0.0 0.0 0.00 0.00 0.00 67 1008.5
20260510010621 80 77 0.0 1.0 0.00 0.00 0.00 66 1008.4
20260510010121 80 0.0 0.0 0.00 0.00 0.00 66 1008.4
20260510005541 80 0.0 0.0 0.00 0.00 0.00 65 1008.4
20260510005034 81 0.0 0.0 0.00 0.00 0.00 65 1008.3
20260510004535 81 84 0.0 1.0 0.00 0.00 0.00 64 1008.3
20260510004117 82 73 1.0 2.0 0.00 0.00 0.00 63 1008.2
20260510003557 82 84 0.0 1.0 0.00 0.00 0.00 63 1008.2
20260510003038 82 77 1.0 1.0 0.00 0.00 0.00 63 1008.3
20260510002518 82 92 0.0 1.0 0.00 0.00 0.00 64 1008.2
20260510002101 83 0.0 0.0 0.00 0.00 0.00 63 1008.2
20260510001542 83 87 0.0 1.0 0.00 0.00 0.00 62 1008.2
20260510001042 83 114 0.0 1.0 0.00 0.00 0.00 62 1008.2
20260510000605 84 85 0.0 1.0 0.00 0.00 0.00 62 1008.2
20260510000046 84 95 0.0 1.0 0.00 0.00 0.00 62 1008.2
20260509235526 85 107 0.0 1.0 0.00 0.00 0.00 60 1008.3
20260509235109 86 73 1.0 3.0 0.00 0.00 0.00 58 1008.3
20260509234555 87 76 1.0 1.0 0.00 0.00 0.00 57 1008.4
20260509234117 88 0.0 0.0 0.00 0.00 0.00 57 1008.2
20260509233557 88 85 0.0 1.0 0.00 0.00 0.00 56 1008.4
20260509233038 89 113 0.0 1.0 0.00 0.00 0.00 54 1008.5
20260509232549 89 0.0 0.0 0.00 0.00 0.00 52 1008.5
20260509232030 89 121 0.0 1.0 0.00 0.00 0.00 51 1008.5
20260509231613 89 102 0.0 2.0 0.00 0.00 0.00 52 1008.5
20260509231053 89 112 0.0 1.0 0.00 0.00 0.00 53 1008.6
20260509230534 89 244 0.0 1.0 0.00 0.00 0.00 51 1008.5
20260509230117 89 101 0.0 1.0 0.00 0.00 0.00 52 1008.5
20260509225557 89 87 0.0 1.0 0.00 0.00 0.00 51 1008.6
20260509225038 89 112 0.0 1.0 0.00 0.00 0.00 51 1008.7
20260509224539 90 109 0.0 1.0 0.00 0.00 0.00 51 1008.6
20260509224122 90 116 1.0 1.0 0.00 0.00 0.00 51 1008.6
20260509223542 90 110 0.0 2.0 0.00 0.00 0.00 49 1008.6
20260509223102 89 105 0.0 1.0 0.00 0.00 0.00 50 1008.6
20260509222605 89 108 0.0 1.0 0.00 0.00 0.00 53 1008.6
20260509222045 89 103 1.0 1.0 0.00 0.00 0.00 50 1008.5
20260509221613 89 116 0.0 1.0 0.00 0.00 0.00 52 1008.6
20260509221053 89 166 1.0 3.0 0.00 0.00 0.00 52 1008.7
20260509220633 89 75 1.0 5.0 0.00 0.00 0.00 50 1008.6
20260509220117 90 121 1.0 1.0 0.00 0.00 0.00 51 1008.6
20260509215557 90 98 0.0 1.0 0.00 0.00 0.00 52 1008.6
20260509215037 90 119 1.0 2.0 0.00 0.00 0.00 50 1008.7
20260509214538 90 143 1.0 2.0 0.00 0.00 0.00 50 1008.7
20260509214101 90 97 0.0 1.0 0.00 0.00 0.00 50 1008.6
20260509213541 89 94 0.0 1.0 0.00 0.00 0.00 50 1008.7
20260509213023 90 94 1.0 2.0 0.00 0.00 0.00 50 1008.8
20260509212534 90 105 0.0 1.0 0.00 0.00 0.00 50 1008.9
20260509212137 89 79 1.0 2.0 0.00 0.00 0.00 50 1009.0
20260509211557 89 81 2.0 5.0 0.00 0.00 0.00 50 1009.1
20260509211038 89 87 1.0 3.0 0.00 0.00 0.00 50 1009.0
20260509210605 89 65 1.0 1.0 0.00 0.00 0.00 48 1009.1
20260509210045 89 347 1.0 2.0 0.00 0.00 0.00 48 1009.2
20260509205526 88 90 1.0 3.0 0.00 0.00 0.00 48 1009.3
20260509205109 89 63 1.0 2.0 0.00 0.00 0.00 48 1009.4
20260509204550 88 76 2.0 5.0 0.00 0.00 0.00 48 1009.4
20260509204050 88 114 1.0 2.0 0.00 0.00 0.00 49 1009.5
20260509203613 88 93 1.0 2.0 0.00 0.00 0.00 48 1009.5
20260509203054 88 78 1.0 2.0 0.00 0.00 0.00 49 1009.6
20260509202534 88 92 1.0 3.0 0.00 0.00 0.00 48 1009.7
20260509202117 88 31 2.0 3.0 0.00 0.00 0.00 50 1009.8
20260509201542 88 93 1.0 2.0 0.00 0.00 0.00 51 1009.7
20260509201022 89 122 1.0 5.0 0.00 0.00 0.00 52 1009.7
20260509200625 89 115 1.0 2.0 0.00 0.00 0.00 52 1009.7
20260509200046 88 82 1.0 3.0 0.00 0.00 0.00 52 1009.8
20260509195526 88 87 1.0 2.0 0.00 0.00 0.00 54 1009.8
20260509195053 88 73 1.0 5.0 0.00 0.00 0.00 52 1010.0
20260509194555 88 42 2.0 3.0 0.00 0.00 0.00 53 1010.0
20260509194101 88 66 1.0 3.0 0.00 0.00 0.00 52 1010.1
20260509193541 87 74 1.0 2.0 0.00 0.00 0.00 51 1010.2
20260509193129 89 65 2.0 3.0 0.00 0.00 0.00 50 1010.1
20260509192554 88 111 0.0 1.0 0.00 0.00 0.00 52 1010.2
20260509192117 88 70 1.0 2.0 0.00 0.00 0.00 55 1010.2
20260509191557 87 50 1.0 2.0 0.00 0.00 0.00 53 1010.3
20260509191038 87 51 2.0 5.0 0.00 0.00 0.00 53 1010.4
20260509190518 87 50 1.0 2.0 0.00 0.00 0.00 53 1010.4
20260509190101 87 339 1.0 3.0 0.00 0.00 0.00 52 1010.5
20260509185541 86 44 0.0 2.0 0.00 0.00 0.00 52 1010.6
20260509185022 86 86 1.0 2.0 0.00 0.00 0.00 53 1010.5
20260509184606 86 88 1.0 2.0 0.00 0.00 0.00 54 1010.6
20260509184106 86 69 1.0 2.0 0.00 0.00 0.00 55 1010.7
20260509183526 85 119 1.0 2.0 0.00 0.00 0.00 55 1010.7
20260509183109 86 114 2.0 3.0 0.00 0.00 0.00 54 1010.8
20260509182550 86 31 2.0 5.0 0.00 0.00 0.00 57 1010.7
20260509182133 85 45 2.0 3.0 0.00 0.00 0.00 56 1010.8
20260509181534 86 76 1.0 5.0 0.00 0.00 0.00 56 1010.9
20260509181109 85 58 1.0 1.0 0.00 0.00 0.00 55 1010.9
20260509180610 86 76 1.0 2.0 0.00 0.00 0.00 57 1010.9
20260509180031 86 42 1.0 2.0 0.00 0.00 0.00 58 1010.9
20260509175613 85 67 1.0 1.0 0.00 0.00 0.00 57 1010.9
20260509175054 85 40 1.0 2.0 0.00 0.00 0.00 57 1011.0
20260509174535 84 290 1.0 2.0 0.00 0.00 0.00 59 1011.1
20260509174117 84 46 1.0 5.0 0.00 0.00 0.00 58 1011.2
20260509173557 84 355 1.0 2.0 0.00 0.00 0.00 58 1011.2
20260509173038 84 57 1.0 3.0 0.00 0.00 0.00 59 1011.2
20260509172518 84 65 1.0 2.0 0.00 0.00 0.00 60 1011.2
20260509172223 84 76 1.0 1.0 0.00 0.00 0.00 60 1011.4
20260509171542 83 28 1.0 2.0 0.00 0.00 0.00 62 1011.4
20260509171022 83 60 1.0 2.0 0.00 0.00 0.00 62 1011.3
20260509170605 82 80 1.0 2.0 0.00 0.00 0.00 63 1011.4
20260509170047 82 96 1.0 1.0 0.00 0.00 0.00 63 1011.5
20260509165526 82 53 1.0 2.0 0.00 0.00 0.00 62 1011.5
20260509165109 82 351 2.0 3.0 0.00 0.00 0.00 62 1011.6
20260509164550 82 26 1.0 5.0 0.00 0.00 0.00 62 1011.7
20260509164030 82 316 1.0 3.0 0.00 0.00 0.00 62 1011.7
20260509163613 80 107 1.0 2.0 0.00 0.00 0.00 64 1011.7
20260509163114 80 71 1.0 2.0 0.00 0.00 0.00 65 1011.8
20260509162534 80 74 1.0 2.0 0.00 0.00 0.00 64 1011.7
20260509162117 80 235 2.0 6.0 0.00 0.00 0.00 63 1011.8
20260509161557 80 8 1.0 3.0 0.00 0.00 0.00 64 1011.7
20260509161037 80 227 1.0 5.0 0.00 0.00 0.00 64 1011.7
20260509160538 80 200 2.0 5.0 0.00 0.00 0.00 63 1011.7
20260509155541 79 356 2.0 5.0 0.00 0.00 0.00 65 1011.6
20260509155034 79 353 2.0 2.0 0.00 0.00 0.00 68 1011.7
20260509154533 78 74 1.0 1.0 0.00 0.00 0.00 69 1011.7
20260509154033 78 326 2.0 3.0 0.00 0.00 0.00 69 1011.7
20260509153534 78 74 1.0 2.0 0.00 0.00 0.00 71 1011.6
20260509153115 77 49 1.0 3.0 0.00 0.00 0.00 70 1011.6
20260509152534 76 88 2.0 3.0 0.00 0.00 0.00 70 1011.8
20260509152034 76 86 1.0 3.0 0.00 0.00 0.00 70 1011.8
20260509151527 76 103 2.0 5.0 0.00 0.00 0.00 70 1011.8
20260509151109 75 74 1.0 2.0 0.00 0.00 0.00 71 1011.8
20260509150549 75 347 1.0 3.0 0.00 0.00 0.00 73 1011.8
20260509150034 75 63 2.0 3.0 0.00 0.00 0.00 73 1011.8
20260509145554 75 3 1.0 3.0 0.00 0.00 0.00 74 1011.8
20260509145034 76 44 2.0 5.0 0.00 0.00 0.00 74 1011.9
20260509144534 75 59 1.0 2.0 0.00 0.00 0.00 74 1011.8
20260509144117 75 334 1.0 2.0 0.00 0.00 0.00 75 1011.9
20260509143557 74 288 2.0 5.0 0.00 0.00 0.00 77 1012.0
20260509143033 74 58 1.0 5.0 0.00 0.00 0.00 77 1012.0
20260509142533 74 250 1.0 2.0 0.00 0.00 0.00 79 1011.9
20260509142033 73 89 1.0 1.0 0.00 0.01 0.00 81 1011.8
20260509141527 73 160 1.0 2.0 0.00 0.02 0.00 82 1011.9
20260509141110 72 104 0.0 1.0 0.00 0.02 0.00 83 1011.9
20260509140550 71 118 0.0 2.0 0.00 0.02 0.00 85 1011.8
20260509140034 71 121 0.0 1.0 0.00 0.02 0.00 86 1011.9
20260509135534 71 118 1.0 1.0 0.00 0.02 0.00 86 1011.9
20260509135034 71 74 1.0 2.0 0.00 0.02 0.00 85 1011.9
20260509134535 70 85 1.0 2.0 0.00 0.02 0.00 86 1011.8
20260509134054 70 56 1.0 2.0 0.00 0.02 0.00 87 1011.8
20260509133534 69 100 1.0 2.0 0.00 0.02 0.00 88 1011.8
20260509133034 68 139 1.0 2.0 0.00 0.02 0.00 89 1011.8
20260509132533 68 186 1.0 2.0 0.00 0.02 0.00 89 1011.9
20260509132034 68 54 1.0 2.0 0.00 0.02 0.00 89 1011.8
20260509131534 68 69 1.0 1.0 0.00 0.02 0.00 89 1011.8
20260509131114 68 82 1.0 2.0 0.00 0.02 0.00 90 1011.8
20260509130533 68 49 1.0 2.0 0.00 0.02 0.00 91 1011.8
20260509130034 67 66 1.0 1.0 0.00 0.02 0.00 92 1011.7
20260509125534 66 50 1.0 2.0 0.00 0.02 0.00 93 1011.8
20260509125034 65 78 0.0 1.0 0.00 0.02 0.00 95 1011.9
20260509124535 65 64 0.0 1.0 0.00 0.02 0.00 96 1011.7
20260509124034 64 80 0.0 1.0 0.00 0.02 0.00 97 1011.7
20260509123533 64 0.0 0.0 0.00 0.02 0.00 97 1011.7
20260509123034 64 0.0 0.0 0.00 0.02 0.00 98 1011.6
20260509122534 64 0.0 0.0 0.00 0.02 0.00 98 1011.7
20260509122054 64 0.0 0.0 0.00 0.02 0.00 98 1011.6
20260509121534 64 0.0 0.0 0.00 0.02 0.00 98 1011.5
20260509121034 64 0.0 0.0 0.00 0.02 0.00 98 1011.5
20260509120534 64 0.0 0.0 0.00 0.02 0.00 97 1011.4
20260509120035 64 0.0 0.0 0.00 0.02 0.00 97 1011.5
20260509115534 64 0.0 0.0 0.00 0.02 0.00 97 1011.2
20260509115114 64 0.0 0.0 0.00 0.02 0.00 97 1011.1
20260509114554 64 0.0 0.0 0.00 0.02 0.00 97 1010.9
20260509114034 64 79 0.0 1.0 0.00 0.02 0.00 97 1011.0
20260509113614 64 0.0 0.0 0.00 0.02 0.00 96 1011.0
20260509113035 65 0.0 0.0 0.00 0.02 0.00 96 1010.9
20260509112034 65 69 0.0 1.0 0.00 0.02 0.00 95 1010.7
20260509111534 65 69 0.0 1.0 0.00 0.02 0.00 95 1010.7
20260509111034 66 82 0.0 1.0 0.00 0.02 0.00 95 1010.4
20260509110534 66 67 0.0 1.0 0.00 0.02 0.00 96 1010.4
20260509110034 66 0.0 0.0 0.00 0.02 0.00 96 1010.6
20260509105534 66 0.0 0.0 0.00 0.02 0.00 96 1010.6
20260509105033 66 68 0.0 1.0 0.00 0.02 0.00 96 1010.6
20260509104535 66 83 0.0 1.0 0.00 0.02 0.00 96 1010.6
20260509104034 67 78 0.0 1.0 0.00 0.02 0.00 96 1010.7
20260509103534 67 70 0.0 1.0 0.00 0.02 0.00 96 1010.6
20260509103035 67 84 0.0 1.0 0.00 0.02 0.00 96 1010.8
20260509102553 67 69 0.0 1.0 0.00 0.02 0.00 96 1010.7
20260509102033 67 0.0 0.0 0.00 0.02 0.00 96 1010.5
20260509101535 67 123 1.0 1.0 0.00 0.02 0.00 95 1010.7
20260509101034 67 136 1.0 2.0 0.00 0.02 0.00 95 1010.6
20260509100533 68 0.0 0.0 0.00 0.02 0.00 95 1010.5
20260509100034 68 0.0 0.0 0.00 0.02 0.00 94 1010.3
20260509095533 68 120 1.0 1.0 0.00 0.02 0.00 94 1009.9
20260509095054 68 111 0.0 1.0 0.00 0.02 0.00 93 1009.7
20260509094534 69 77 1.0 2.0 0.00 0.02 0.00 93 1009.6
20260509094030 69 50 1.0 3.0 0.00 0.02 0.00 92 1009.4
20260509093755 69 52 2.0 6.0 0.00 0.02 0.00 91 1009.4
20260509093054 69 55 1.0 3.0 0.00 0.06 0.00 90 1009.2
20260509092534 70 57 3.0 8.0 0.00 0.06 0.00 88 1009.0
20260509092033 70 87 4.0 13.0 0.00 0.06 0.00 86 1009.1
20260509091534 70 70 3.0 7.0 0.00 0.06 0.00 85 1009.0
20260509091034 70 62 3.0 7.0 0.00 0.06 0.00 83 1008.8
20260509090518 70 49 3.0 6.0 0.00 0.06 0.00 82 1008.7
20260509085534 70 64 3.0 7.0 0.00 0.06 0.00 80 1008.5
20260509085033 70 84 1.0 2.0 0.00 0.06 0.00 78 1008.6
20260509084553 70 20 2.0 7.0 0.00 0.06 0.00 78 1008.5
20260509084118 69 36 2.0 2.0 0.00 0.06 0.00 81 1008.3
20260509083558 67 26 2.0 7.0 0.00 0.06 0.00 86 1008.4
20260509083035 68 88 1.0 2.0 0.00 0.06 0.00 88 1007.2
20260509082534 68 97 1.0 2.0 0.00 0.06 0.00 88 1006.7
20260509082033 67 88 1.0 2.0 0.00 0.06 0.00 88 1006.7
20260509081555 67 88 1.0 2.0 0.00 0.06 0.00 89 1006.7
20260509081023 68 88 1.0 1.0 0.00 0.06 0.00 89 1006.8
20260509080606 67 113 1.0 1.0 0.00 0.06 0.00 88 1007.0
20260509080047 67 112 1.0 1.0 0.00 0.06 0.00 90 1007.4
20260509075534 67 131 1.0 2.0 0.00 0.06 0.00 92 1007.7
20260509075034 67 127 1.0 2.0 0.00 0.06 0.00 93 1007.9
20260509074534 68 122 1.0 2.0 0.00 0.06 0.00 94 1008.3
20260509074034 68 104 1.0 3.0 0.00 0.06 0.00 92 1008.8
20260509073534 68 92 1.0 2.0 0.00 0.06 0.00 92 1009.6
20260509073034 68 93 1.0 1.0 0.00 0.07 0.00 94 1009.9
20260509072534 68 89 1.0 1.0 0.00 0.08 0.00 96 1010.1
20260509072033 68 119 0.0 2.0 0.00 0.09 0.00 96 1010.5
20260509071534 68 126 1.0 1.0 0.00 0.11 0.00 97 1010.6
20260509071023 68 122 1.0 2.0 0.00 0.12 0.00 97 1010.8
20260509070626 68 121 1.0 2.0 0.00 0.16 0.00 97 1010.9
20260509070047 68 121 1.0 2.0 0.00 0.18 0.00 97 1011.0
20260509065534 68 142 1.0 3.0 0.00 0.18 0.00 97 1011.1
20260509065053 68 130 1.0 2.0 0.00 0.18 0.00 97 1011.4
20260509064535 68 124 1.0 1.0 0.00 0.18 0.00 97 1011.2
20260509064032 68 117 1.0 1.0 0.00 0.18 0.00 97 1011.6
20260509063614 68 111 0.0 1.0 0.00 0.18 0.00 97 1011.8
20260509063054 68 111 0.0 1.0 0.00 0.18 0.00 97 1011.8
20260509062534 68 119 0.0 1.0 0.00 0.18 0.00 97 1012.0
20260509062034 68 107 0.0 1.0 0.00 0.18 0.00 97 1011.9
20260509061527 68 117 0.0 1.0 0.00 0.18 0.00 97 1012.1
20260509061110 68 109 0.0 1.0 0.00 0.18 0.00 97 1012.2
20260509060550 68 144 0.0 2.0 0.00 0.18 0.00 97 1012.5
20260509060032 67 86 0.0 1.0 0.00 0.18 0.00 97 1012.4
20260509055614 67 0.0 0.0 0.00 0.18 0.00 96 1012.3
20260509055114 67 0.0 0.0 0.00 0.18 0.00 96 1012.3
20260509054555 68 0.0 0.0 0.00 0.18 0.00 96 1012.2
20260509054118 68 0.0 0.0 0.00 0.18 0.00 95 1012.0
20260509053558 68 0.0 0.0 0.00 0.18 0.00 95 1011.7
20260509053036 68 107 0.0 1.0 0.00 0.18 0.00 94 1011.5
20260509052622 69 105 0.0 1.0 0.00 0.18 0.00 94 1011.8
20260509052103 69 73 0.0 1.0 0.00 0.18 0.00 94 1012.1
20260509051536 69 47 1.0 3.0 0.00 0.18 0.00 94 1012.3
20260509051023 69 41 1.0 2.0 0.00 0.18 0.00 93 1012.4
20260509050626 69 45 1.0 3.0 0.00 0.18 0.00 93 1012.7
20260509050039 70 54 1.0 3.0 0.00 0.18 0.00 93 1012.7
20260509045547 70 20 3.0 7.0 0.00 0.18 0.18 93 1012.7
20260509045054 70 47 2.0 3.0 0.00 0.18 0.18 93 1012.6
20260509044535 69 35 2.0 3.0 0.00 0.18 0.18 94 1012.2
20260509044118 69 75 0.0 1.0 0.00 0.18 0.18 94 1011.4
20260509043558 69 110 0.0 1.0 0.00 0.18 0.18 94 1011.1
20260509043037 69 109 0.0 1.0 0.00 0.18 0.18 94 1011.1
20260509042622 69 0.0 0.0 0.00 0.18 0.18 94 1011.0
20260509042143 69 101 0.0 1.0 0.00 0.18 0.18 94 1010.9
20260509041536 69 107 0.0 1.0 0.00 0.18 0.18 94 1010.6
20260509041023 69 111 1.0 1.0 0.00 0.18 0.18 94 1010.5